Current Version              Previous Version:    01  02  03  04  05  06  07  08  09  10  11  12  13  14  15  16  17  18  19  20  21  22  23  24  25  26  27  28  29  30  
   31  32  33  34  35  36  37  38  39  40  41  42  43  44  45  46  47  48  49  50  51  52  53  54  55  56  57  58  59  60  

[Printable]
970
ASUS44 KEWX 302002
RWRTX
SOUTH TEXAS REGIONAL WEATHER ROUNDUP
NATIONAL WEATHER SERVICE AUSTIN/SAN ANTONIO TX
300 PM CDT SAT AUG 30 2014

NOTE: "FAIR" INDICATED FEW OR NO CLOUDS BELOW 12,000 FEET WITH NO
SIGNIFICANT WEATHER AND/OR OBSTRUCTIONS TO VISIBILITY.

* - THESE STATIONS ARE NOT NWS OR FAA STATIONS...AND ARE NOT SUBJECT
    TO NWS AND FAA QUALITY CONTROL.

TXZ171-172-183>190-302100-
TEXAS HILL COUNTRY AND EDWARDS PLATEAU

CITY           SKY/WX    TMP DP  RH WIND       PRES   REMARKS
JUNCTION       PTSUNNY   92  66  42 E9        29.93F HX  94
*LLANO         SUNNY     97  64  34 SE9G17    29.94F HX  99
BURNET         PTSUNNY   94  66  39 SE13G20   29.95F HX  97
*HORSESHOE BAY SUNNY     95  64  35 SE6       29.92F HX  96
*KERRVILLE     SUNNY     94  65  38 SE7       29.93F HX  96
*FREDERICKSBRG MOSUNNY   95  60  30 SE6       29.94F HX  95
*ROCKSPRINGS   PTSUNNY   90  64  43 NE6       29.99F HX  91
*BOERNE STAGE  PTSUNNY   93  61  33 E7        29.95F HX  93
*CASTROVILLE   MOSUNNY   97  62  31 S3        29.92F HX  97
HONDO          MOSUNNY   97  66  36 MISG      29.91F HX 100
*UVALDE        SUNNY     96  66  37 NE8       29.90F HX  99
DEL RIO        MOSUNNY   98  66  34 NE7G18    29.87F HX 101
LAUGHLIN AFB   NOT AVBL
CARRIZO SPRGS  PTSUNNY   95  68  41 E3        29.86F HX  99
$$

TXZ173-191>194-202-209-217>225-228-302100-
CENTRAL AND SOUTH CENTRAL TEXAS

CITY           SKY/WX    TMP DP  RH WIND       PRES   REMARKS
GEORGETOWN     PTSUNNY   93  68  43 SE8       29.93F HX  97
AUSTIN/BERGSTM PTSUNNY   92  69  47 E7        29.91F HX  97
AUSTIN/MABRY   PTSUNNY   93  68  43 E6        29.92F HX  97
*AUSTIN/EXEC   PTSUNNY   90  70  51 E12       29.93S HX  95
*LAGO VISTA    PTSUNNY   95  64  35 E13       29.94F HX  97
SAN MARCOS     MOSUNNY   93  68  43 SE6       29.93S HX  97
NEW BRAUNFELS  PTSUNNY   93  68  43 E9        29.90F HX  97
RANDOLPH AFB   SUNNY     95  66  38 VRB6      29.91F HX  98
PT SAN ANTONIO MOSUNNY   95  68  40 E9        29.89F HX  99
SAN ANTONIO    PTSUNNY   96  66  37 SE8       29.91F HX  99
STINSON FIELD  PTSUNNY   94  68  42 VRB5      29.88F HX  98
*PLEASANTON    MOSUNNY   95  66  38 E6        29.89F HX  97
*LA GRANGE     SUNNY     95  71  45 NE5       29.89F HX 101
*GIDDINGS      MOSUNNY   91  68  47 NE5       29.97F HX  94
*GONZALES      MOSUNNY   91  73  54 CALM      29.90F HX  99
$$

TXZ163>164-176>182-195>201-210>213-226-227-235-302100-
SOUTHEAST TEXAS

CITY           SKY/WX    TMP DP  RH WIND       PRES   REMARKS
COLLEGE STN    MOSUNNY   89  69  51 CALM      29.93F HX  93
*BRYAN         PTSUNNY   89  70  54 CALM      29.92F HX  93
*CALDWELL      SUNNY     88  72  58 NE3       29.97F HX  94
*CROCKETT        N/A     90  75  62 SE6       29.95F HX 100
*BRENHAM       SUNNY     90  71  52 E5        29.92F HX  96
HUNTSVILLE     PTSUNNY   91  68  46 S6        29.92F HX  95
CONROE         CLOUDY    87  71  58 SE6       29.93F HX  93
HOUSTON BUSH   PTSUNNY   90  72  55 VRB6      29.92F HX  96
HOUSTON HOBBY  CLOUDY    87  73  62 SE7       29.92F HX  94
*HOUSTON SW AP CLOUDY    84  74  72 S3        29.93F HX  91
PEARLAND       CLOUDY    86  73  65 S6        29.95F HX  93
HOUSTON HOOKS  CLOUDY    92  69  47 S5        29.92F HX  97
ELLINGTON FLD  PTSUNNY   86  73  66 S6        29.95F THUNDER HX  93
SUGAR LAND     CLOUDY    88  74  63 SE8       29.92F HX  96
*HOUSTON EXEC  CLOUDY    90  90 100 SE6       29.92F HX 129
*CLEVELAND MUN CLOUDY    87  75  68 S3        29.94F HX  96
*WHARTON       CLOUDY    90  71  53 SE10      29.92F HX  96
$$

TXZ214>216-236>238-302100-
THE UPPER TEXAS COAST

CITY           SKY/WX    TMP DP  RH WIND       PRES   REMARKS
*ORANGE        LGT RAIN  77  77 100 SE6       29.98S
PORT ARTHUR    TSTM      78  75  90 S9        29.95F FOG
GALVESTON      LGT RAIN  80  78  94 S9        29.94F
ANGLETON       CLOUDY    81  74  79 S8        29.94F
*BAY CITY      CLOUDY    84  77  80 SE8       29.93F HX  94
PALACIOS       CLOUDY    84  75  74 SE12      29.92F HX  92
$$

TXZ229>234-239>247-302100-
TEXAS COASTAL BEND AND RIO GRANDE PLAINS

CITY           SKY/WX    TMP DP  RH WIND       PRES   REMARKS
VICTORIA       LGT RAIN  86  76  71 S12       29.92S HX  96
*BEEVILLE      CLOUDY    91  71  50 E8        29.89F HX  97
ROCKPORT       PTSUNNY   86  71  60 S10       29.91F HX  91
*PORT ARANSAS  CLOUDY    83  73  72 SE10      29.92S
*PORT LAVACA   LGT RAIN  82  76  80 SE5       29.92F
*INGLESIDE     PTSUNNY   87  73  61 SE12G20   29.91F HX  94
CORPUS CHRISTI PTSUNNY   85  76  74 SE10      29.91F HX  94
CORPUS NAS     CLOUDY    85  76  74 SE10      29.90F HX  94
*ROBSTOWN      CLOUDY    87  75  67 E12       29.90F HX  96
ALICE          PTSUNNY   91  73  55 SE10      29.88F HX  99
KINGSVILLE NAS CLOUDY    89  76  65 E8        29.89F HX 100
COTULLA        MOSUNNY   97  65  34 E8        29.86F HX  99
*FAITH RANCH   MOSUNNY   93  66  40 S3        29.90F HX  96
LAREDO         MOSUNNY   99  70  38 E10       29.87F HX 106
$$

TXZ248>255-302100-
DEEP SOUTH TEXAS

CITY           SKY/WX    TMP DP  RH WIND       PRES   REMARKS
BROWNSVILLE    LGT RAIN  82  78  88 E10       29.88F HX  91
PORT ISABEL    CLOUDY    84  75  74 E12       29.89F HX  92
*SOUTH PADRE     N/A     81  77  89 E12       29.90F
HARLINGEN      CLOUDY    90  75  61 SE12      29.86F HX 100
*HEBBRONVILLE  NOT AVBL
MCALLEN        MOSUNNY   91  76  61 SE12      29.85F HX 103
*WESLACO       NOT AVBL
FALFURRIAS     PTSUNNY   85  69  57 E10G16    29.88F
EDINBURG       CLOUDY    96  71  45 SE12G20   29.85F HX 103
*ZAPATA        CLOUDY    98  65  34 E10       29.83F HX 101
$$

TXZ213>215-236>238-242>244-246-247-251-254-255-302100-
CMAN STATIONS

STATION/POSITION TIME  TEMP    WIND        PRES    WAVE
                       AIR SEA DIR/SP/G            HT/PER
                 (UTC) (F)     (DEG/KT/KT) (MB)    (FT/S)
SABINE PASS      1900   76 83  170/  6/ 10 1014.9
SEA RIM ST PARK  1900   77     160/ 11/ 14 1015.2
NORTH JETTY/GLS  1900   80 83  210/ 19/ 21   N/A
EAGLE POINT      1900   80 83  170/ 12/ 17 1014.3
MORGANS POINT    1900   82     160/  9/ 13 1013.8
MISSION/ARANSAS  1900   81     130/  6     1014.0
PORT O`CONNOR    1900           70/  5/  7   N/A
PORT ARANSAS     1900   81 84  130/  8/ 10 1013.7
MALAQUITE BEACH  1900   81 83  130/  6/  8 1012.6
BAFFIN BAY       1900   81 80  110/ 12/ 15 1012.6
PORT ISABEL      1900   81 82   80/  8/ 13 1012.8
$$

GMZ080-GMZ150>470-302100-
OFFSHORE BUOY REPORTS

STATION/POSITION TIME  TEMP    WIND        PRES    WAVE
                       AIR SEA DIR/SP/G            HT/PER
                 (UTC) (F)     (DEG/KT/KT) (MB)    (FT/S)
20 E GALVESTON   2000   80 85  200/ 12/ 16 1013.4    4/ 7
90 E PT ARANSAS  2000   80 85   60/  6/  8   N/A     4/ 7
35 NE PT MANSFLD 1900   80 85   80/ 12/ 14 1013.3    4/ 7
200 E PT ISABEL  1900   83 86  150/ 16/ 19 1014.1    6/ 7
$$